Time,TemperatureF,DewpointF,PressureIn,WindDirection,WindDirectionDegrees,WindSpeedMPH,WindSpeedGustMPH,Humidity,HourlyPrecipIn,Conditions,Clouds,dailyrainin,SoftwareType,DateUTC
2013-08-04 00:07:00,77.8,76.0,30.12,NNW,344,0.0,0.0,94,0.00,,,0.00,weatherlink.com 1.10,2013-08-04 04:07:00,
2013-08-04 00:23:00,77.8,76.0,30.12,NNW,344,0.0,0.0,94,0.00,,,0.00,weatherlink.com 1.10,2013-08-04 04:23:00,
2013-08-04 00:37:00,77.3,76.0,30.11,NNW,344,0.0,0.0,94,0.00,,,0.00,weatherlink.com 1.10,2013-08-04 04:37:00,
2013-08-04 00:52:00,77.5,76.0,30.11,NNW,344,0.0,0.0,94,0.00,,,0.00,weatherlink.com 1.10,2013-08-04 04:52:00,
2013-08-04 01:07:00,77.6,76.0,30.11,NNW,344,0.0,0.0,94,0.00,,,0.00,weatherlink.com 1.10,2013-08-04 05:07:00,
2013-08-04 01:22:00,77.8,76.0,30.10,NNW,344,0.0,0.0,94,0.00,,,0.00,weatherlink.com 1.10,2013-08-04 05:22:00,
2013-08-04 01:37:00,77.6,76.0,30.10,NNW,344,0.0,0.0,94,0.00,,,0.00,weatherlink.com 1.10,2013-08-04 05:37:00,
2013-08-04 01:53:00,77.8,76.0,30.09,NNW,344,0.0,0.0,94,0.00,,,0.00,weatherlink.com 1.10,2013-08-04 05:53:00,
2013-08-04 02:08:00,77.8,76.0,30.09,NNW,344,0.0,0.0,94,0.00,,,0.00,weatherlink.com 1.10,2013-08-04 06:08:00,
2013-08-04 02:22:00,77.6,76.0,30.08,NNW,344,0.0,0.0,94,0.00,,,0.00,weatherlink.com 1.10,2013-08-04 06:22:00,
2013-08-04 02:41:00,77.3,76.0,30.07,NNW,344,0.0,0.0,94,0.00,,,0.00,weatherlink.com 1.10,2013-08-04 06:41:00,
2013-08-04 02:53:00,77.1,75.0,30.07,NNW,344,0.0,0.0,93,0.00,,,0.00,weatherlink.com 1.10,2013-08-04 06:53:00,
2013-08-04 03:07:00,77.5,75.0,30.07,NNW,344,0.0,0.0,93,0.00,,,0.00,weatherlink.com 1.10,2013-08-04 07:07:00,
2013-08-04 03:23:00,77.5,75.0,30.08,NNW,344,0.0,0.0,93,0.00,,,0.00,weatherlink.com 1.10,2013-08-04 07:23:00,
2013-08-04 03:37:00,77.3,75.0,30.08,NNW,344,0.0,0.0,93,0.00,,,0.00,weatherlink.com 1.10,2013-08-04 07:37:00,
2013-08-04 03:53:00,77.3,75.0,30.07,NNW,344,0.0,0.0,93,0.00,,,0.00,weatherlink.com 1.10,2013-08-04 07:53:00,
2013-08-04 04:07:00,77.3,75.0,30.07,NNW,344,0.0,0.0,93,0.00,,,0.00,weatherlink.com 1.10,2013-08-04 08:07:00,
2013-08-04 04:23:00,77.5,75.0,30.07,NNW,344,0.0,0.0,93,0.00,,,0.00,weatherlink.com 1.10,2013-08-04 08:23:00,
2013-08-04 04:37:00,77.6,76.0,30.06,NNW,344,0.0,0.0,93,0.00,,,0.00,weatherlink.com 1.10,2013-08-04 08:37:00,
2013-08-04 04:52:00,77.8,76.0,30.07,NNW,344,0.0,0.0,93,0.00,,,0.00,weatherlink.com 1.10,2013-08-04 08:52:00,
2013-08-04 05:08:00,77.6,76.0,30.07,NNW,344,0.0,0.0,93,0.00,,,0.00,weatherlink.com 1.10,2013-08-04 09:08:00,
2013-08-04 05:23:00,77.6,76.0,30.06,NNW,344,0.0,1.0,94,0.00,,,0.00,weatherlink.com 1.10,2013-08-04 09:23:00,
2013-08-04 05:38:00,77.5,76.0,30.07,NNW,344,0.0,2.0,94,0.00,,,0.00,weatherlink.com 1.10,2013-08-04 09:38:00,
2013-08-04 05:53:00,77.1,75.0,30.07,NNW,344,1.0,3.0,94,0.00,,,0.00,weatherlink.com 1.10,2013-08-04 09:53:00,
2013-08-04 06:07:00,76.9,75.0,30.07,NNW,344,0.0,0.0,94,0.00,,,0.00,weatherlink.com 1.10,2013-08-04 10:07:00,
2013-08-04 06:25:00,77.3,76.0,30.07,NNW,344,0.0,0.0,94,0.00,,,0.00,weatherlink.com 1.10,2013-08-04 10:25:00,
2013-08-04 06:38:00,77.1,75.0,30.08,NNW,344,0.0,0.0,94,0.00,,,0.00,weatherlink.com 1.10,2013-08-04 10:38:00,
2013-08-04 06:52:00,77.5,76.0,30.08,NNW,344,0.0,0.0,94,0.00,,,0.00,weatherlink.com 1.10,2013-08-04 10:52:00,
2013-08-04 07:07:00,77.3,75.0,30.08,NNW,344,0.0,0.0,93,0.00,,,0.00,weatherlink.com 1.10,2013-08-04 11:07:00,
2013-08-04 07:23:00,77.8,76.0,30.08,NNW,344,0.0,0.0,94,0.00,,,0.00,weatherlink.com 1.10,2013-08-04 11:23:00,
2013-08-04 07:38:00,78.2,76.0,30.09,NNW,344,0.0,0.0,94,0.00,,,0.00,weatherlink.com 1.10,2013-08-04 11:38:00,
2013-08-04 07:53:00,78.5,77.0,30.09,NNW,344,0.0,0.0,94,0.00,,,0.00,weatherlink.com 1.10,2013-08-04 11:53:00,
2013-08-04 08:08:00,78.7,77.0,30.09,NNW,344,0.0,0.0,94,0.00,,,0.00,weatherlink.com 1.10,2013-08-04 12:08:00,
2013-08-04 08:23:00,79.1,77.0,30.09,NNW,344,0.0,0.0,93,0.00,,,0.00,weatherlink.com 1.10,2013-08-04 12:23:00,
2013-08-04 08:38:00,79.3,77.0,30.09,NNW,344,0.0,0.0,92,0.00,,,0.00,weatherlink.com 1.10,2013-08-04 12:38:00,
2013-08-04 08:53:00,81.3,78.0,30.09,NNW,344,0.0,0.0,88,0.00,,,0.00,weatherlink.com 1.10,2013-08-04 12:53:00,
2013-08-04 09:08:00,84.6,76.0,30.10,NNW,344,0.0,0.0,75,0.00,,,0.00,weatherlink.com 1.10,2013-08-04 13:08:00,
2013-08-04 09:23:00,85.4,76.0,30.10,NNW,344,0.0,0.0,73,0.00,,,0.00,weatherlink.com 1.10,2013-08-04 13:23:00,
2013-08-04 09:38:00,84.6,76.0,30.11,NNW,344,0.0,0.0,74,0.00,,,0.00,weatherlink.com 1.10,2013-08-04 13:38:00,
2013-08-04 09:53:00,84.8,76.0,30.11,NNW,344,0.0,1.0,75,0.00,,,0.00,weatherlink.com 1.10,2013-08-04 13:53:00,
2013-08-04 10:08:00,85.2,76.0,30.10,NNW,344,0.0,0.0,74,0.00,,,0.00,weatherlink.com 1.10,2013-08-04 14:08:00,
2013-08-04 10:23:00,86.2,76.0,30.10,NNW,340,0.0,1.0,72,0.00,,,0.00,weatherlink.com 1.10,2013-08-04 14:23:00,
2013-08-04 10:38:00,86.9,76.0,30.10,West,277,0.0,3.0,69,0.00,,,0.00,weatherlink.com 1.10,2013-08-04 14:38:00,
2013-08-04 10:53:00,88.5,75.0,30.10,WSW,247,0.0,4.0,65,0.00,,,0.00,weatherlink.com 1.10,2013-08-04 14:53:00,
2013-08-04 11:08:00,89.4,75.0,30.10,South,177,0.0,2.0,63,0.00,,,0.00,weatherlink.com 1.10,2013-08-04 15:08:00,
2013-08-04 11:23:00,89.6,75.0,30.10,SW,225,0.0,4.0,63,0.00,,,0.00,weatherlink.com 1.10,2013-08-04 15:23:00,
2013-08-04 11:38:00,89.4,74.0,30.10,SW,229,1.0,4.0,61,0.00,,,0.00,weatherlink.com 1.10,2013-08-04 15:38:00,
2013-08-04 11:53:00,90.0,73.0,30.09,SW,229,0.0,3.0,58,0.00,,,0.00,weatherlink.com 1.10,2013-08-04 15:53:00,
2013-08-04 12:08:00,90.2,74.0,30.09,SW,229,0.0,3.0,59,0.00,,,0.00,weatherlink.com 1.10,2013-08-04 16:08:00,
2013-08-04 12:23:00,89.8,73.0,30.09,SW,227,0.0,6.0,57,0.00,,,0.00,weatherlink.com 1.10,2013-08-04 16:23:00,
2013-08-04 12:38:00,88.7,75.0,30.08,SSE,167,1.0,6.0,64,0.00,,,0.00,weatherlink.com 1.10,2013-08-04 16:38:00,
2013-08-04 12:53:00,89.2,75.0,30.07,SSE,151,0.0,6.0,64,0.00,,,0.00,weatherlink.com 1.10,2013-08-04 16:53:00,
2013-08-04 13:08:00,89.2,75.0,30.07,SSE,147,2.0,6.0,63,0.00,,,0.00,weatherlink.com 1.10,2013-08-04 17:08:00,
2013-08-04 13:23:00,89.4,75.0,30.06,ESE,102,1.0,9.0,63,0.00,,,0.00,weatherlink.com 1.10,2013-08-04 17:23:00,
2013-08-04 13:38:00,89.2,74.0,30.06,ESE,105,1.0,12.0,62,0.00,,,0.00,weatherlink.com 1.10,2013-08-04 17:38:00,
2013-08-04 13:53:00,88.7,75.0,30.05,SE,126,2.0,8.0,65,0.00,,,0.00,weatherlink.com 1.10,2013-08-04 17:53:00,
2013-08-04 14:08:00,89.6,75.0,30.05,ESE,114,4.0,9.0,63,0.00,,,0.00,weatherlink.com 1.10,2013-08-04 18:08:00,
2013-08-04 14:23:00,89.6,76.0,30.04,SSE,150,2.0,13.0,64,0.00,,,0.00,weatherlink.com 1.10,2013-08-04 18:23:00,
2013-08-04 14:38:00,90.0,75.0,30.04,South,171,6.0,11.0,61,0.00,,,0.00,weatherlink.com 1.10,2013-08-04 18:38:00,
2013-08-04 14:53:00,90.0,74.0,30.02,SSE,150,5.0,10.0,60,0.00,,,0.00,weatherlink.com 1.10,2013-08-04 18:53:00,
2013-08-04 15:08:00,89.8,74.0,30.02,SSE,162,5.0,9.0,60,0.00,,,0.00,weatherlink.com 1.10,2013-08-04 19:08:00,
2013-08-04 15:23:00,88.9,74.0,30.01,SSE,162,4.0,11.0,61,0.00,,,0.00,weatherlink.com 1.10,2013-08-04 19:23:00,
2013-08-04 15:38:00,88.7,74.0,30.01,SSE,158,0.0,9.0,63,0.00,,,0.00,weatherlink.com 1.10,2013-08-04 19:38:00,
2013-08-04 15:53:00,89.6,75.0,30.00,SE,125,0.0,7.0,63,0.00,,,0.00,weatherlink.com 1.10,2013-08-04 19:53:00,
2013-08-04 16:08:00,89.2,75.0,30.00,SSE,159,5.0,10.0,64,0.00,,,0.00,weatherlink.com 1.10,2013-08-04 20:08:00,
2013-08-04 16:23:00,88.7,75.0,30.00,SE,140,0.0,8.0,65,0.00,,,0.00,weatherlink.com 1.10,2013-08-04 20:23:00,
2013-08-04 16:39:00,89.2,76.0,29.99,SSE,164,0.0,8.0,66,0.00,,,0.00,weatherlink.com 1.10,2013-08-04 20:39:00,
2013-08-04 16:54:00,89.2,76.0,29.99,SE,141,4.0,13.0,66,0.00,,,0.00,weatherlink.com 1.10,2013-08-04 20:54:00,
2013-08-04 17:08:00,88.7,76.0,29.99,SE,127,7.0,10.0,66,0.00,,,0.00,weatherlink.com 1.10,2013-08-04 21:08:00,
2013-08-04 17:24:00,88.7,76.0,29.99,SSE,154,3.0,10.0,67,0.00,,,0.00,weatherlink.com 1.10,2013-08-04 21:24:00,
2013-08-04 17:39:00,88.3,76.0,29.99,SE,128,4.0,8.0,67,0.00,,,0.00,weatherlink.com 1.10,2013-08-04 21:39:00,
2013-08-04 17:54:00,87.7,76.0,30.01,SE,131,3.0,7.0,69,0.00,,,0.00,weatherlink.com 1.10,2013-08-04 21:54:00,
2013-08-04 18:09:00,87.1,76.0,30.00,SSE,147,2.0,8.0,69,0.00,,,0.00,weatherlink.com 1.10,2013-08-04 22:09:00,
2013-08-04 18:24:00,86.9,76.0,30.01,South,173,0.0,5.0,70,0.00,,,0.00,weatherlink.com 1.10,2013-08-04 22:24:00,
2013-08-04 18:39:00,85.0,73.0,30.02,NNW,344,10.0,23.0,68,0.00,,,0.00,weatherlink.com 1.10,2013-08-04 22:39:00,
2013-08-04 18:54:00,81.7,72.0,30.04,NNE,19,9.0,18.0,73,0.00,,,0.00,weatherlink.com 1.10,2013-08-04 22:54:00,
2013-08-04 19:09:00,80.4,74.0,30.03,NNE,23,5.0,9.0,80,0.01,,,0.01,weatherlink.com 1.10,2013-08-04 23:09:00,
2013-08-04 19:24:00,79.5,74.0,30.04,NNE,19,0.0,5.0,83,0.01,,,0.01,weatherlink.com 1.10,2013-08-04 23:24:00,
2013-08-04 19:39:00,79.3,75.0,30.05,NNE,33,0.0,4.0,85,0.01,,,0.01,weatherlink.com 1.10,2013-08-04 23:39:00,
2013-08-04 19:54:00,78.4,74.0,30.04,East,92,0.0,6.0,86,0.02,,,0.02,weatherlink.com 1.10,2013-08-04 23:54:00,
2013-08-04 20:09:00,78.0,74.0,30.03,East,92,0.0,0.0,88,0.02,,,0.03,weatherlink.com 1.10,2013-08-05 00:09:00,
2013-08-04 20:23:00,78.4,75.0,30.04,East,92,0.0,0.0,88,0.02,,,0.03,weatherlink.com 1.10,2013-08-05 00:23:00,
2013-08-04 20:39:00,78.5,75.0,30.04,East,92,0.0,0.0,89,0.02,,,0.03,weatherlink.com 1.10,2013-08-05 00:39:00,
2013-08-04 20:54:00,79.1,76.0,30.04,East,92,0.0,0.0,90,0.01,,,0.03,weatherlink.com 1.10,2013-08-05 00:54:00,
2013-08-04 21:09:00,79.3,76.0,30.04,East,92,0.0,0.0,90,0.00,,,0.03,weatherlink.com 1.10,2013-08-05 01:09:00,
2013-08-04 21:23:00,79.3,76.0,30.04,East,92,0.0,0.0,90,0.00,,,0.03,weatherlink.com 1.10,2013-08-05 01:23:00,
2013-08-04 21:38:00,79.5,76.0,30.04,East,92,0.0,0.0,90,0.00,,,0.03,weatherlink.com 1.10,2013-08-05 01:38:00,
2013-08-04 21:54:00,79.5,76.0,30.05,East,92,0.0,0.0,90,0.00,,,0.03,weatherlink.com 1.10,2013-08-05 01:54:00,
2013-08-04 22:09:00,79.8,77.0,30.05,East,92,0.0,0.0,90,0.00,,,0.03,weatherlink.com 1.10,2013-08-05 02:09:00,
2013-08-04 22:23:00,79.8,77.0,30.05,East,92,0.0,0.0,90,0.00,,,0.03,weatherlink.com 1.10,2013-08-05 02:23:00,
2013-08-04 22:39:00,80.0,77.0,30.05,East,92,0.0,0.0,90,0.00,,,0.03,weatherlink.com 1.10,2013-08-05 02:39:00,
2013-08-04 22:54:00,79.8,77.0,30.05,East,92,0.0,0.0,90,0.00,,,0.03,weatherlink.com 1.10,2013-08-05 02:54:00,
2013-08-04 23:09:00,79.7,76.0,30.05,East,92,0.0,0.0,89,0.00,,,0.03,weatherlink.com 1.10,2013-08-05 03:09:00,
2013-08-04 23:24:00,79.7,76.0,30.05,East,92,0.0,0.0,89,0.00,,,0.03,weatherlink.com 1.10,2013-08-05 03:24:00,
2013-08-04 23:39:00,79.7,76.0,30.05,East,92,0.0,0.0,89,0.00,,,0.03,weatherlink.com 1.10,2013-08-05 03:39:00,
2013-08-04 23:54:00,79.7,76.0,30.05,East,92,0.0,0.0,89,0.00,,,0.03,weatherlink.com 1.10,2013-08-05 03:54:00,